Location: Newark
(23.5328°S, 46.7919°W)
Time: 05:46:28
(UTC+00:00)

Envisat - Pass Details

Date: 07 March 2021
Orbit: 764 x 766 km, 98.1° (Epoch: 16 April)

Event Time Altitude Azimuth Distance (km) Brightness Sun altitude
Rises 07:49:15 0° 23° (NNE) 3,213 6.3 -18.0°
Reaches altitude 10° 07:51:34 10° 27° (NNE) 2,294 5.6 -17.5°
Maximum altitude 07:56:31 56° 104° (ESE) 909 3.7 -16.4°
Drops below altitude 10° 08:01:30 10° 181° (S) 2,319 5.6 -15.3°
Sets 08:03:51 0° 185° (S) 3,252 6.3 -14.8°
